Time,TemperatureF,DewpointF,PressureIn,WindDirection,WindDirectionDegrees,WindSpeedMPH,WindSpeedGustMPH,Humidity,HourlyPrecipIn,Conditions,Clouds,dailyrainin,SoftwareType,DateUTC
2013-04-08 00:00:00,48.3,42.7,30.12,West,265,0.0,0.0,81,0.00,,,0.00,Wunderground v.1.13,2013-04-08 04:00:00,
2013-04-08 00:02:00,48.2,42.6,30.12,West,265,0.0,0.0,81,0.00,,,0.00,Wunderground v.1.13,2013-04-08 04:02:00,
2013-04-08 00:08:00,48.1,42.9,30.12,West,265,0.0,0.0,82,0.00,,,0.00,Wunderground v.1.13,2013-04-08 04:08:00,
2013-04-08 00:10:00,48.0,42.8,30.12,West,265,0.0,0.0,82,0.00,,,0.00,Wunderground v.1.13,2013-04-08 04:10:00,
2013-04-08 00:11:00,47.9,42.7,30.12,West,265,0.0,0.0,82,0.00,,,0.00,Wunderground v.1.13,2013-04-08 04:11:00,
2013-04-08 00:16:00,47.8,42.9,30.12,West,265,0.0,0.0,83,0.00,,,0.00,Wunderground v.1.13,2013-04-08 04:16:00,
2013-04-08 00:21:00,47.7,42.8,30.12,West,265,0.0,0.0,83,0.00,,,0.00,Wunderground v.1.13,2013-04-08 04:21:00,
2013-04-08 00:27:00,47.6,42.7,30.11,West,265,0.0,0.0,83,0.00,,,0.00,Wunderground v.1.13,2013-04-08 04:27:00,
2013-04-08 00:32:00,47.4,42.5,30.11,West,265,0.0,0.0,83,0.00,,,0.00,Wunderground v.1.13,2013-04-08 04:32:00,
2013-04-08 00:37:00,47.3,42.4,30.11,West,265,0.0,0.0,83,0.00,,,0.00,Wunderground v.1.13,2013-04-08 04:37:00,
2013-04-08 00:43:00,47.2,42.6,30.11,West,265,0.0,0.0,84,0.00,,,0.00,Wunderground v.1.13,2013-04-08 04:43:00,
2013-04-08 00:48:00,47.2,42.6,30.11,West,265,0.0,0.0,84,0.00,,,0.00,Wunderground v.1.13,2013-04-08 04:48:00,
2013-04-08 00:53:00,47.1,42.5,30.11,West,265,0.0,0.0,84,0.00,,,0.00,Wunderground v.1.13,2013-04-08 04:53:00,
2013-04-08 00:58:00,47.0,42.4,30.11,West,265,0.0,0.0,84,0.00,,,0.00,Wunderground v.1.13,2013-04-08 04:58:00,
2013-04-08 01:03:00,46.9,42.6,30.11,West,265,0.0,0.0,85,0.00,,,0.00,Wunderground v.1.13,2013-04-08 05:03:00,
2013-04-08 01:09:00,46.8,42.5,30.11,West,265,0.0,0.0,85,0.00,,,0.00,Wunderground v.1.13,2013-04-08 05:09:00,
2013-04-08 01:15:00,46.7,42.4,30.11,West,265,0.0,0.0,85,0.00,,,0.00,Wunderground v.1.13,2013-04-08 05:15:00,
2013-04-08 01:20:00,46.6,42.3,30.11,West,265,0.0,0.0,85,0.00,,,0.00,Wunderground v.1.13,2013-04-08 05:20:00,
2013-04-08 01:25:00,46.5,42.2,30.11,West,265,0.0,0.0,85,0.00,,,0.00,Wunderground v.1.13,2013-04-08 05:25:00,
2013-04-08 01:30:00,46.5,42.5,30.11,West,265,0.0,0.0,86,0.00,,,0.00,Wunderground v.1.13,2013-04-08 05:30:00,
2013-04-08 01:35:00,46.5,42.5,30.11,West,265,0.0,0.0,86,0.00,,,0.00,Wunderground v.1.13,2013-04-08 05:35:00,
2013-04-08 01:41:00,46.5,42.5,30.11,West,265,0.0,0.0,86,0.00,,,0.00,Wunderground v.1.13,2013-04-08 05:41:00,
2013-04-08 01:47:00,46.4,42.4,30.11,West,265,0.0,0.0,86,0.00,,,0.00,Wunderground v.1.13,2013-04-08 05:47:00,
2013-04-08 01:52:00,46.4,42.4,30.11,West,265,0.0,0.0,86,0.00,,,0.00,Wunderground v.1.13,2013-04-08 05:52:00,
2013-04-08 01:57:00,46.3,42.3,30.11,West,265,0.0,0.0,86,0.00,,,0.00,Wunderground v.1.13,2013-04-08 05:57:00,
2013-04-08 02:03:00,46.1,42.1,30.11,West,265,0.0,0.0,86,0.00,,,0.00,Wunderground v.1.13,2013-04-08 06:03:00,
2013-04-08 02:09:00,46.0,42.0,30.11,West,265,0.0,0.0,86,0.00,,,0.00,Wunderground v.1.13,2013-04-08 06:09:00,
2013-04-08 02:15:00,46.0,42.0,30.11,West,265,0.0,0.0,86,0.00,,,0.00,Wunderground v.1.13,2013-04-08 06:15:00,
2013-04-08 02:20:00,45.9,42.2,30.10,West,265,0.0,0.0,87,0.00,,,0.00,Wunderground v.1.13,2013-04-08 06:20:00,
2013-04-08 02:26:00,45.8,42.2,30.10,West,265,0.0,0.0,87,0.00,,,0.00,Wunderground v.1.13,2013-04-08 06:26:00,
2013-04-08 02:32:00,45.6,42.0,30.10,West,265,0.0,0.0,87,0.00,,,0.00,Wunderground v.1.13,2013-04-08 06:32:00,
2013-04-08 02:37:00,45.5,41.9,30.10,West,265,0.0,0.0,87,0.00,,,0.00,Wunderground v.1.13,2013-04-08 06:37:00,
2013-04-08 02:42:00,45.4,41.8,30.10,West,265,0.0,0.0,87,0.00,,,0.00,Wunderground v.1.13,2013-04-08 06:42:00,
2013-04-08 02:48:00,45.2,41.6,30.10,West,265,0.0,0.0,87,0.00,,,0.00,Wunderground v.1.13,2013-04-08 06:48:00,
2013-04-08 02:53:00,45.1,41.5,30.10,West,265,0.0,0.0,87,0.00,,,0.00,Wunderground v.1.13,2013-04-08 06:53:00,
2013-04-08 02:58:00,45.0,41.4,30.10,West,265,0.0,0.0,87,0.00,,,0.00,Wunderground v.1.13,2013-04-08 06:58:00,
2013-04-08 03:03:00,44.8,41.2,30.10,West,265,0.0,0.0,87,0.00,,,0.00,Wunderground v.1.13,2013-04-08 07:03:00,
2013-04-08 03:08:00,44.7,41.1,30.10,West,265,0.0,0.0,87,0.00,,,0.00,Wunderground v.1.13,2013-04-08 07:08:00,
2013-04-08 03:14:00,44.5,40.9,30.10,West,265,0.0,0.0,87,0.00,,,0.00,Wunderground v.1.13,2013-04-08 07:14:00,
2013-04-08 03:19:00,44.4,40.8,30.10,West,265,0.0,0.0,87,0.00,,,0.00,Wunderground v.1.13,2013-04-08 07:19:00,
2013-04-08 03:24:00,44.3,40.7,30.10,West,265,0.0,0.0,87,0.00,,,0.00,Wunderground v.1.13,2013-04-08 07:24:00,
2013-04-08 03:30:00,44.1,40.5,30.10,West,265,0.0,0.0,87,0.00,,,0.00,Wunderground v.1.13,2013-04-08 07:30:00,
2013-04-08 03:35:00,43.9,40.6,30.10,West,265,0.0,0.0,88,0.00,,,0.00,Wunderground v.1.13,2013-04-08 07:35:00,
2013-04-08 03:41:00,43.8,40.5,30.10,West,265,0.0,0.0,88,0.00,,,0.00,Wunderground v.1.13,2013-04-08 07:41:00,
2013-04-08 03:46:00,43.7,40.4,30.10,West,265,0.0,0.0,88,0.00,,,0.00,Wunderground v.1.13,2013-04-08 07:46:00,
2013-04-08 03:51:00,43.6,40.3,30.10,West,265,0.0,0.0,88,0.00,,,0.00,Wunderground v.1.13,2013-04-08 07:51:00,
2013-04-08 03:57:00,43.4,40.1,30.10,West,265,0.0,0.0,88,0.00,,,0.00,Wunderground v.1.13,2013-04-08 07:57:00,
2013-04-08 04:02:00,43.3,40.0,30.10,West,265,0.0,0.0,88,0.00,,,0.00,Wunderground v.1.13,2013-04-08 08:02:00,
2013-04-08 04:08:00,43.2,40.2,30.10,West,265,0.0,0.0,89,0.00,,,0.00,Wunderground v.1.13,2013-04-08 08:08:00,
2013-04-08 04:13:00,43.2,40.2,30.10,West,265,0.0,0.0,89,0.00,,,0.00,Wunderground v.1.13,2013-04-08 08:13:00,
2013-04-08 04:18:00,43.3,40.6,30.10,West,265,0.0,0.0,90,0.00,,,0.00,Wunderground v.1.13,2013-04-08 08:18:00,
2013-04-08 04:23:00,43.3,40.6,30.10,West,265,0.0,0.0,90,0.00,,,0.00,Wunderground v.1.13,2013-04-08 08:23:00,
2013-04-08 04:28:00,43.4,40.7,30.10,West,265,0.0,0.0,90,0.00,,,0.00,Wunderground v.1.13,2013-04-08 08:28:00,
2013-04-08 04:34:00,43.6,40.9,30.10,West,265,0.0,0.0,90,0.00,,,0.00,Wunderground v.1.13,2013-04-08 08:34:00,
2013-04-08 04:39:00,43.7,41.0,30.11,West,265,0.0,0.0,90,0.00,,,0.00,Wunderground v.1.13,2013-04-08 08:39:00,
2013-04-08 04:45:00,43.8,41.1,30.10,West,265,0.0,0.0,90,0.00,,,0.00,Wunderground v.1.13,2013-04-08 08:45:00,
2013-04-08 04:50:00,43.8,41.3,30.10,West,265,0.0,0.0,91,0.00,,,0.00,Wunderground v.1.13,2013-04-08 08:50:00,
2013-04-08 04:56:00,43.9,41.4,30.11,West,265,0.0,0.0,91,0.00,,,0.00,Wunderground v.1.13,2013-04-08 08:56:00,
2013-04-08 05:01:00,43.9,41.4,30.11,West,265,0.0,0.0,91,0.00,,,0.00,Wunderground v.1.13,2013-04-08 09:01:00,
2013-04-08 05:07:00,44.0,41.5,30.11,West,265,0.0,0.0,91,0.00,,,0.00,Wunderground v.1.13,2013-04-08 09:07:00,
2013-04-08 05:12:00,44.0,41.5,30.10,West,265,0.0,0.0,91,0.00,,,0.00,Wunderground v.1.13,2013-04-08 09:12:00,
2013-04-08 05:18:00,44.1,41.6,30.10,West,265,0.0,0.0,91,0.00,,,0.00,Wunderground v.1.13,2013-04-08 09:18:00,
2013-04-08 05:23:00,44.1,41.6,30.11,West,265,0.0,0.0,91,0.00,,,0.00,Wunderground v.1.13,2013-04-08 09:23:00,
2013-04-08 05:28:00,44.2,41.7,30.11,West,265,0.0,0.0,91,0.00,,,0.00,Wunderground v.1.13,2013-04-08 09:28:00,
2013-04-08 05:34:00,44.2,41.7,30.11,West,265,0.0,0.0,91,0.00,,,0.00,Wunderground v.1.13,2013-04-08 09:34:00,
2013-04-08 05:40:00,44.3,41.8,30.11,West,265,0.0,0.0,91,0.00,,,0.00,Wunderground v.1.13,2013-04-08 09:40:00,
2013-04-08 05:45:00,44.3,41.8,30.11,West,265,0.0,0.0,91,0.00,,,0.00,Wunderground v.1.13,2013-04-08 09:45:00,
2013-04-08 05:50:00,44.4,41.9,30.11,West,265,0.0,0.0,91,0.00,,,0.00,Wunderground v.1.13,2013-04-08 09:50:00,
2013-04-08 05:55:00,44.4,41.9,30.11,West,265,0.0,0.0,91,0.00,,,0.00,Wunderground v.1.13,2013-04-08 09:55:00,
2013-04-08 06:00:00,44.6,42.4,30.11,West,265,0.0,0.0,92,0.00,,,0.00,Wunderground v.1.13,2013-04-08 10:00:00,
2013-04-08 06:06:00,44.9,42.7,30.11,West,265,0.0,0.0,92,0.00,,,0.00,Wunderground v.1.13,2013-04-08 10:06:00,
2013-04-08 06:11:00,45.0,42.8,30.11,West,265,0.0,0.0,92,0.00,,,0.00,Wunderground v.1.13,2013-04-08 10:11:00,
2013-04-08 06:17:00,45.0,42.8,30.12,West,265,0.0,0.0,92,0.00,,,0.00,Wunderground v.1.13,2013-04-08 10:17:00,
2013-04-08 06:22:00,45.0,42.8,30.12,West,265,0.0,0.0,92,0.00,,,0.00,Wunderground v.1.13,2013-04-08 10:22:00,
2013-04-08 06:27:00,45.0,42.8,30.12,West,265,0.0,0.0,92,0.00,,,0.00,Wunderground v.1.13,2013-04-08 10:27:00,
2013-04-08 06:33:00,45.1,42.9,30.12,West,265,0.0,0.0,92,0.00,,,0.00,Wunderground v.1.13,2013-04-08 10:33:00,
2013-04-08 06:38:00,45.2,43.0,30.12,West,265,0.0,0.0,92,0.00,,,0.00,Wunderground v.1.13,2013-04-08 10:38:00,
2013-04-08 06:44:00,45.5,43.3,30.12,West,265,0.0,0.0,92,0.00,,,0.00,Wunderground v.1.13,2013-04-08 10:44:00,
2013-04-08 06:49:00,45.6,43.4,30.13,West,265,0.0,0.0,92,0.00,,,0.00,Wunderground v.1.13,2013-04-08 10:49:00,
2013-04-08 06:55:00,45.7,43.5,30.13,West,265,0.0,0.0,92,0.00,,,0.00,Wunderground v.1.13,2013-04-08 10:55:00,
2013-04-08 07:02:00,45.8,43.6,30.13,West,265,0.0,0.0,92,0.00,,,0.00,Wunderground v.1.13,2013-04-08 11:02:00,
2013-04-08 07:07:00,45.8,43.6,30.13,West,265,0.0,0.0,92,0.00,,,0.00,Wunderground v.1.13,2013-04-08 11:07:00,
2013-04-08 07:12:00,45.8,43.6,30.13,West,265,0.0,0.0,92,0.00,,,0.00,Wunderground v.1.13,2013-04-08 11:12:00,
2013-04-08 07:18:00,45.8,43.6,30.14,West,265,0.0,0.0,92,0.00,,,0.00,Wunderground v.1.13,2013-04-08 11:18:00,
2013-04-08 07:23:00,45.8,43.6,30.14,West,265,0.0,0.0,92,0.00,,,0.00,Wunderground v.1.13,2013-04-08 11:23:00,
2013-04-08 07:28:00,45.8,43.6,30.14,West,265,0.0,0.0,92,0.00,,,0.00,Wunderground v.1.13,2013-04-08 11:28:00,
2013-04-08 07:33:00,45.8,43.6,30.14,West,265,0.0,0.0,92,0.00,,,0.00,Wunderground v.1.13,2013-04-08 11:33:00,
2013-04-08 07:39:00,45.8,43.6,30.14,West,265,0.0,0.0,92,0.00,,,0.00,Wunderground v.1.13,2013-04-08 11:39:00,
2013-04-08 07:44:00,45.9,43.7,30.14,West,265,0.0,0.0,92,0.00,,,0.00,Wunderground v.1.13,2013-04-08 11:44:00,
2013-04-08 07:50:00,45.9,43.7,30.14,West,265,0.0,0.0,92,0.00,,,0.00,Wunderground v.1.13,2013-04-08 11:50:00,
2013-04-08 07:55:00,46.0,43.8,30.14,West,265,0.0,0.0,92,0.00,,,0.00,Wunderground v.1.13,2013-04-08 11:55:00,
2013-04-08 08:00:00,46.1,43.9,30.14,West,265,0.0,0.0,92,0.00,,,0.00,Wunderground v.1.13,2013-04-08 12:00:00,
2013-04-08 08:06:00,46.3,44.1,30.14,West,265,0.0,0.0,92,0.00,,,0.00,Wunderground v.1.13,2013-04-08 12:06:00,
2013-04-08 08:11:00,46.8,44.9,30.15,West,265,0.0,0.0,93,0.00,,,0.00,Wunderground v.1.13,2013-04-08 12:11:00,
2013-04-08 08:16:00,47.4,45.5,30.15,West,265,0.0,0.0,93,0.00,,,0.00,Wunderground v.1.13,2013-04-08 12:16:00,
2013-04-08 08:22:00,48.3,46.4,30.15,West,265,0.0,0.0,93,0.00,,,0.00,Wunderground v.1.13,2013-04-08 12:22:00,
2013-04-08 08:28:00,48.9,46.7,30.15,West,265,0.0,0.0,92,0.00,,,0.00,Wunderground v.1.13,2013-04-08 12:28:00,
2013-04-08 08:34:00,49.5,47.3,30.14,West,265,0.0,0.0,92,0.00,,,0.00,Wunderground v.1.13,2013-04-08 12:34:00,
2013-04-08 08:40:00,50.3,47.8,30.15,West,265,0.0,0.0,91,0.00,,,0.00,Wunderground v.1.13,2013-04-08 12:40:00,
2013-04-08 08:45:00,51.0,48.2,30.15,West,265,0.0,0.0,90,0.00,,,0.00,Wunderground v.1.13,2013-04-08 12:45:00,
2013-04-08 08:51:00,51.8,48.7,30.15,West,265,0.0,0.0,89,0.00,,,0.00,Wunderground v.1.13,2013-04-08 12:51:00,
2013-04-08 08:57:00,52.8,49.0,30.15,West,265,0.0,0.0,87,0.00,,,0.00,Wunderground v.1.13,2013-04-08 12:57:00,
2013-04-08 09:02:00,53.6,49.2,30.15,West,265,0.0,0.0,85,0.00,,,0.00,Wunderground v.1.13,2013-04-08 13:02:00,
2013-04-08 09:08:00,54.7,49.6,30.15,West,265,0.0,0.0,83,0.00,,,0.00,Wunderground v.1.13,2013-04-08 13:08:00,
2013-04-08 09:13:00,55.3,49.6,30.15,West,265,0.0,0.0,81,0.00,,,0.00,Wunderground v.1.13,2013-04-08 13:13:00,
2013-04-08 09:18:00,56.1,50.0,30.15,West,265,0.0,0.0,80,0.00,,,0.00,Wunderground v.1.13,2013-04-08 13:18:00,
2013-04-08 09:24:00,57.2,50.4,30.15,West,265,0.0,0.0,78,0.00,,,0.00,Wunderground v.1.13,2013-04-08 13:24:00,
2013-04-08 09:29:00,58.5,51.0,30.15,West,265,0.0,0.0,76,0.00,,,0.00,Wunderground v.1.13,2013-04-08 13:29:00,
2013-04-08 09:35:00,59.5,50.8,30.15,West,265,0.0,0.0,73,0.00,,,0.00,Wunderground v.1.13,2013-04-08 13:35:00,
2013-04-08 09:40:00,60.2,51.1,30.14,West,265,0.0,0.0,72,0.00,,,0.00,Wunderground v.1.13,2013-04-08 13:40:00,
2013-04-08 09:45:00,60.9,51.4,30.14,West,265,0.0,0.0,71,0.00,,,0.00,Wunderground v.1.13,2013-04-08 13:45:00,
2013-04-08 09:51:00,61.7,51.4,30.14,West,265,0.0,0.0,69,0.00,,,0.00,Wunderground v.1.13,2013-04-08 13:51:00,
2013-04-08 09:56:00,62.3,51.6,30.14,West,265,0.0,0.0,68,0.00,,,0.00,Wunderground v.1.13,2013-04-08 13:56:00,
2013-04-08 10:02:00,62.9,51.8,30.14,West,265,0.0,0.0,67,0.00,,,0.00,Wunderground v.1.13,2013-04-08 14:02:00,
2013-04-08 10:07:00,63.6,52.4,30.14,West,265,0.0,1.0,67,0.00,,,0.00,Wunderground v.1.13,2013-04-08 14:07:00,
2013-04-08 10:13:00,64.1,52.5,30.15,West,265,0.0,1.0,66,0.00,,,0.00,Wunderground v.1.13,2013-04-08 14:13:00,
2013-04-08 10:18:00,64.5,52.9,30.14,West,265,0.0,0.0,66,0.00,,,0.00,Wunderground v.1.13,2013-04-08 14:18:00,
2013-04-08 10:24:00,65.0,53.4,30.14,West,265,1.0,3.0,66,0.00,,,0.00,Wunderground v.1.13,2013-04-08 14:24:00,
2013-04-08 10:29:00,65.4,53.7,30.14,West,265,1.0,2.0,66,0.00,,,0.00,Wunderground v.1.13,2013-04-08 14:29:00,
2013-04-08 10:35:00,65.8,54.1,30.15,West,265,1.0,3.0,66,0.00,,,0.00,Wunderground v.1.13,2013-04-08 14:35:00,
2013-04-08 10:40:00,66.0,54.3,30.15,West,265,1.0,2.0,66,0.00,,,0.00,Wunderground v.1.13,2013-04-08 14:40:00,
2013-04-08 10:46:00,66.1,52.7,30.15,West,265,1.0,1.0,62,0.00,,,0.00,Wunderground v.1.13,2013-04-08 14:46:00,
2013-04-08 10:52:00,66.2,52.8,30.15,West,279,1.0,4.0,62,0.00,,,0.00,Wunderground v.1.13,2013-04-08 14:52:00,
2013-04-08 10:57:00,66.1,52.7,30.15,West,281,2.0,2.0,62,0.00,,,0.00,Wunderground v.1.13,2013-04-08 14:57:00,
2013-04-08 11:02:00,66.2,52.3,30.15,WNW,302,1.0,3.0,61,0.00,,,0.00,Wunderground v.1.13,2013-04-08 15:02:00,
2013-04-08 11:07:00,66.8,52.9,30.15,WNW,302,2.0,2.0,61,0.00,,,0.00,Wunderground v.1.13,2013-04-08 15:07:00,
2013-04-08 11:12:00,67.9,53.0,30.14,WNW,302,1.0,3.0,59,0.00,,,0.00,Wunderground v.1.13,2013-04-08 15:12:00,
2013-04-08 11:18:00,68.9,53.5,30.14,WNW,302,1.0,3.0,58,0.00,,,0.00,Wunderground v.1.13,2013-04-08 15:18:00,
2013-04-08 11:23:00,69.6,54.2,30.14,WNW,299,2.0,4.0,58,0.00,,,0.00,Wunderground v.1.13,2013-04-08 15:23:00,
2013-04-08 11:28:00,70.1,55.1,30.14,NW,304,3.0,7.0,59,0.00,,,0.00,Wunderground v.1.13,2013-04-08 15:28:00,
2013-04-08 11:33:00,70.4,54.9,30.14,NW,316,3.0,4.0,58,0.00,,,0.00,Wunderground v.1.13,2013-04-08 15:33:00,
2013-04-08 11:38:00,70.9,55.4,30.14,WNW,297,3.0,9.0,58,0.00,,,0.00,Wunderground v.1.13,2013-04-08 15:38:00,
2013-04-08 11:44:00,71.0,55.5,30.14,NW,304,5.0,10.0,58,0.00,,,0.00,Wunderground v.1.13,2013-04-08 15:44:00,
2013-04-08 11:50:00,72.0,56.4,30.14,WNW,299,5.0,6.0,58,0.00,,,0.00,Wunderground v.1.13,2013-04-08 15:50:00,
2013-04-08 11:55:00,72.3,56.2,30.14,NW,317,5.0,6.0,57,0.00,,,0.00,Wunderground v.1.13,2013-04-08 15:55:00,
2013-04-08 12:00:00,71.9,55.8,30.14,WNW,300,5.0,9.0,57,0.00,,,0.00,Wunderground v.1.13,2013-04-08 16:00:00,
2013-04-08 12:06:00,72.0,55.9,30.14,West,276,5.0,6.0,57,0.00,,,0.00,Wunderground v.1.13,2013-04-08 16:06:00,
2013-04-08 12:11:00,72.4,55.8,30.14,West,277,5.0,10.0,56,0.00,,,0.00,Wunderground v.1.13,2013-04-08 16:11:00,
2013-04-08 12:17:00,73.5,56.8,30.14,WNW,284,5.0,7.0,56,0.00,,,0.00,Wunderground v.1.13,2013-04-08 16:17:00,
2013-04-08 12:23:00,73.6,55.9,30.13,WSW,254,5.0,6.0,54,0.00,,,0.00,Wunderground v.1.13,2013-04-08 16:23:00,
2013-04-08 12:28:00,73.8,56.6,30.13,WNW,282,4.0,10.0,55,0.00,,,0.00,Wunderground v.1.13,2013-04-08 16:28:00,
2013-04-08 12:33:00,74.0,56.3,30.13,West,259,6.0,9.0,54,0.00,,,0.00,Wunderground v.1.13,2013-04-08 16:33:00,
2013-04-08 12:39:00,74.2,56.5,30.13,WSW,255,7.0,12.0,54,0.00,,,0.00,Wunderground v.1.13,2013-04-08 16:39:00,
2013-04-08 12:45:00,74.5,55.7,30.12,West,268,8.0,9.0,52,0.00,,,0.00,Wunderground v.1.13,2013-04-08 16:45:00,
2013-04-08 12:51:00,75.1,55.2,30.12,West,269,9.0,10.0,50,0.00,,,0.00,Wunderground v.1.13,2013-04-08 16:51:00,
2013-04-08 12:57:00,74.5,56.8,30.12,West,279,8.0,9.0,54,0.00,,,0.00,Wunderground v.1.13,2013-04-08 16:57:00,
2013-04-08 13:02:00,73.8,56.1,30.12,West,274,8.0,9.0,54,0.00,,,0.00,Wunderground v.1.13,2013-04-08 17:02:00,
2013-04-08 13:08:00,73.3,56.7,30.12,WNW,287,6.0,7.0,56,0.00,,,0.00,Wunderground v.1.13,2013-04-08 17:08:00,
2013-04-08 13:13:00,73.6,55.9,30.11,WNW,283,5.0,10.0,54,0.00,,,0.00,Wunderground v.1.13,2013-04-08 17:13:00,
2013-04-08 13:19:00,74.0,56.8,30.11,WNW,295,4.0,4.0,55,0.00,,,0.00,Wunderground v.1.13,2013-04-08 17:19:00,
2013-04-08 13:24:00,74.2,56.0,30.11,West,269,4.0,9.0,53,0.00,,,0.00,Wunderground v.1.13,2013-04-08 17:24:00,
2013-04-08 13:29:00,74.2,53.8,30.11,West,268,7.0,12.0,49,0.00,,,0.00,Wunderground v.1.13,2013-04-08 17:29:00,
2013-04-08 13:35:00,74.2,55.4,30.10,WSW,255,9.0,10.0,52,0.00,,,0.00,Wunderground v.1.13,2013-04-08 17:35:00,
2013-04-08 13:40:00,74.4,55.1,30.10,West,269,10.0,10.0,51,0.00,,,0.00,Wunderground v.1.13,2013-04-08 17:40:00,
2013-04-08 13:46:00,74.8,53.8,30.10,WNW,286,10.0,10.0,48,0.00,,,0.00,Wunderground v.1.13,2013-04-08 17:46:00,
2013-04-08 13:51:00,74.8,54.4,30.10,WNW,289,9.0,9.0,49,0.00,,,0.00,Wunderground v.1.13,2013-04-08 17:51:00,
2013-04-08 13:56:00,75.5,55.0,30.09,SW,236,9.0,17.0,49,0.00,,,0.00,Wunderground v.1.13,2013-04-08 17:56:00,
2013-04-08 14:01:00,75.6,54.5,30.09,WSW,252,10.0,10.0,48,0.00,,,0.00,Wunderground v.1.13,2013-04-08 18:01:00,
2013-04-08 14:06:00,76.3,54.6,30.09,WSW,257,9.0,12.0,47,0.00,,,0.00,Wunderground v.1.13,2013-04-08 18:06:00,
2013-04-08 14:11:00,76.5,54.2,30.09,WNW,296,9.0,11.0,46,0.00,,,0.00,Wunderground v.1.13,2013-04-08 18:11:00,
2013-04-08 14:16:00,76.7,54.4,30.09,West,271,9.0,12.0,46,0.00,,,0.00,Wunderground v.1.13,2013-04-08 18:16:00,
2013-04-08 14:22:00,76.1,54.4,30.08,SW,221,10.0,11.0,47,0.00,,,0.00,Wunderground v.1.13,2013-04-08 18:22:00,
2013-04-08 14:27:00,76.1,54.4,30.08,West,259,11.0,13.0,47,0.00,,,0.00,Wunderground v.1.13,2013-04-08 18:27:00,
2013-04-08 14:32:00,76.9,55.7,30.08,West,277,11.0,11.0,48,0.00,,,0.00,Wunderground v.1.13,2013-04-08 18:32:00,
2013-04-08 14:37:00,77.0,54.6,30.08,West,276,12.0,12.0,46,0.00,,,0.00,Wunderground v.1.13,2013-04-08 18:37:00,
2013-04-08 14:42:00,77.2,54.8,30.08,WSW,251,12.0,12.0,46,0.00,,,0.00,Wunderground v.1.13,2013-04-08 18:42:00,
2013-04-08 14:48:00,76.6,55.4,30.08,WNW,296,12.0,18.0,48,0.00,,,0.00,Wunderground v.1.13,2013-04-08 18:48:00,
2013-04-08 14:53:00,76.4,55.3,30.08,WNW,290,11.0,12.0,48,0.00,,,0.00,Wunderground v.1.13,2013-04-08 18:53:00,
2013-04-08 14:58:00,76.5,55.9,30.08,West,269,11.0,16.0,49,0.00,,,0.00,Wunderground v.1.13,2013-04-08 18:58:00,
2013-04-08 15:04:00,77.5,55.7,30.08,West,269,9.0,12.0,47,0.00,,,0.00,Wunderground v.1.13,2013-04-08 19:04:00,
2013-04-08 15:10:00,77.8,56.0,30.08,WSW,247,9.0,15.0,47,0.00,,,0.00,Wunderground v.1.13,2013-04-08 19:10:00,
2013-04-08 15:15:00,78.0,56.1,30.07,WNW,282,10.0,10.0,47,0.00,,,0.00,Wunderground v.1.13,2013-04-08 19:15:00,
2013-04-08 15:21:00,78.3,55.2,30.07,West,272,10.0,12.0,45,0.00,,,0.00,Wunderground v.1.13,2013-04-08 19:21:00,
2013-04-08 15:26:00,78.0,54.9,30.07,WSW,257,10.0,11.0,45,0.00,,,0.00,Wunderground v.1.13,2013-04-08 19:26:00,
2013-04-08 15:32:00,77.7,54.7,30.07,West,280,9.0,9.0,45,0.00,,,0.00,Wunderground v.1.13,2013-04-08 19:32:00,
2013-04-08 15:38:00,77.6,54.0,30.07,West,259,10.0,11.0,44,0.00,,,0.00,Wunderground v.1.13,2013-04-08 19:38:00,
2013-04-08 15:44:00,77.4,55.0,30.07,WNW,288,10.0,12.0,46,0.00,,,0.00,Wunderground v.1.13,2013-04-08 19:44:00,
2013-04-08 15:49:00,77.1,54.1,30.07,West,270,11.0,22.0,45,0.00,,,0.00,Wunderground v.1.13,2013-04-08 19:49:00,
2013-04-08 15:55:00,76.8,55.0,30.06,West,277,12.0,15.0,47,0.00,,,0.00,Wunderground v.1.13,2013-04-08 19:55:00,
2013-04-08 16:00:00,76.7,53.8,30.06,WNW,290,12.0,14.0,45,0.00,,,0.00,Wunderground v.1.13,2013-04-08 20:00:00,
2013-04-08 16:06:00,76.8,55.0,30.06,WNW,285,13.0,13.0,47,0.00,,,0.00,Wunderground v.1.13,2013-04-08 20:06:00,
2013-04-08 16:12:00,76.9,54.5,30.06,West,264,11.0,12.0,46,0.00,,,0.00,Wunderground v.1.13,2013-04-08 20:12:00,
2013-04-08 16:18:00,76.8,55.0,30.06,NW,305,10.0,16.0,47,0.00,,,0.00,Wunderground v.1.13,2013-04-08 20:18:00,
2013-04-08 16:23:00,76.7,55.5,30.06,WNW,283,11.0,13.0,48,0.00,,,0.00,Wunderground v.1.13,2013-04-08 20:23:00,
2013-04-08 16:29:00,77.3,55.5,30.06,West,277,10.0,13.0,47,0.00,,,0.00,Wunderground v.1.13,2013-04-08 20:29:00,
2013-04-08 16:34:00,77.5,55.1,30.06,WSW,256,11.0,15.0,46,0.00,,,0.00,Wunderground v.1.13,2013-04-08 20:34:00,
2013-04-08 16:40:00,77.6,55.2,30.06,West,281,11.0,15.0,46,0.00,,,0.00,Wunderground v.1.13,2013-04-08 20:40:00,
2013-04-08 16:46:00,77.2,54.2,30.05,West,271,11.0,12.0,45,0.00,,,0.00,Wunderground v.1.13,2013-04-08 20:46:00,
2013-04-08 16:51:00,76.9,55.1,30.06,West,265,11.0,12.0,47,0.00,,,0.00,Wunderground v.1.13,2013-04-08 20:51:00,
2013-04-08 16:56:00,76.9,55.1,30.06,West,262,10.0,11.0,47,0.00,,,0.00,Wunderground v.1.13,2013-04-08 20:56:00,
2013-04-08 17:02:00,76.6,54.3,30.06,West,274,11.0,13.0,46,0.00,,,0.00,Wunderground v.1.13,2013-04-08 21:02:00,
2013-04-08 17:07:00,76.1,54.4,30.05,West,269,11.0,13.0,47,0.00,,,0.00,Wunderground v.1.13,2013-04-08 21:07:00,
2013-04-08 17:13:00,75.8,54.1,30.05,WNW,285,11.0,17.0,47,0.00,,,0.00,Wunderground v.1.13,2013-04-08 21:13:00,
2013-04-08 17:19:00,75.7,54.0,30.05,West,267,11.0,14.0,47,0.00,,,0.00,Wunderground v.1.13,2013-04-08 21:19:00,
2013-04-08 17:25:00,75.4,53.8,30.05,West,281,10.0,12.0,47,0.00,,,0.00,Wunderground v.1.13,2013-04-08 21:25:00,
2013-04-08 17:31:00,75.2,53.6,30.05,West,277,9.0,9.0,47,0.00,,,0.00,Wunderground v.1.13,2013-04-08 21:31:00,
2013-04-08 17:37:00,75.1,54.1,30.05,West,273,8.0,9.0,48,0.00,,,0.00,Wunderground v.1.13,2013-04-08 21:37:00,
2013-04-08 17:42:00,75.0,53.4,30.05,West,277,9.0,11.0,47,0.00,,,0.00,Wunderground v.1.13,2013-04-08 21:42:00,
2013-04-08 17:47:00,74.9,54.4,30.05,West,281,8.0,9.0,49,0.00,,,0.00,Wunderground v.1.13,2013-04-08 21:47:00,
2013-04-08 17:53:00,74.8,53.8,30.05,West,260,6.0,12.0,48,0.00,,,0.00,Wunderground v.1.13,2013-04-08 21:53:00,
2013-04-08 17:58:00,74.6,54.2,30.05,West,267,7.0,11.0,49,0.00,,,0.00,Wunderground v.1.13,2013-04-08 21:58:00,
2013-04-08 18:03:00,74.4,54.0,30.06,West,261,9.0,10.0,49,0.00,,,0.00,Wunderground v.1.13,2013-04-08 22:03:00,
2013-04-08 18:09:00,74.3,54.5,30.06,WNW,285,8.0,10.0,50,0.00,,,0.00,Wunderground v.1.13,2013-04-08 22:09:00,
2013-04-08 18:14:00,74.4,54.5,30.06,WNW,291,7.0,9.0,50,0.00,,,0.00,Wunderground v.1.13,2013-04-08 22:14:00,
2013-04-08 18:19:00,74.4,54.5,30.05,WSW,252,7.0,12.0,50,0.00,,,0.00,Wunderground v.1.13,2013-04-08 22:19:00,
2013-04-08 18:25:00,74.2,53.8,30.05,WSW,255,8.0,8.0,49,0.00,,,0.00,Wunderground v.1.13,2013-04-08 22:25:00,
2013-04-08 18:30:00,74.1,54.3,30.05,West,267,7.0,12.0,50,0.00,,,0.00,Wunderground v.1.13,2013-04-08 22:30:00,
2013-04-08 18:36:00,74.0,54.2,30.06,West,261,7.0,7.0,50,0.00,,,0.00,Wunderground v.1.13,2013-04-08 22:36:00,
2013-04-08 18:42:00,73.8,54.0,30.06,West,263,7.0,9.0,50,0.00,,,0.00,Wunderground v.1.13,2013-04-08 22:42:00,
2013-04-08 18:47:00,73.5,53.7,30.06,West,274,7.0,9.0,50,0.00,,,0.00,Wunderground v.1.13,2013-04-08 22:47:00,
2013-04-08 18:53:00,73.3,54.6,30.06,West,271,5.0,7.0,52,0.00,,,0.00,Wunderground v.1.13,2013-04-08 22:53:00,
2013-04-08 18:59:00,73.1,53.9,30.06,WNW,285,4.0,7.0,51,0.00,,,0.00,Wunderground v.1.13,2013-04-08 22:59:00,
2013-04-08 19:04:00,73.0,54.3,30.06,West,265,5.0,7.0,52,0.00,,,0.00,Wunderground v.1.13,2013-04-08 23:04:00,
2013-04-08 19:10:00,72.9,54.2,30.06,West,268,4.0,5.0,52,0.00,,,0.00,Wunderground v.1.13,2013-04-08 23:10:00,
2013-04-08 19:16:00,72.7,54.1,30.05,West,266,4.0,4.0,52,0.00,,,0.00,Wunderground v.1.13,2013-04-08 23:16:00,
2013-04-08 19:22:00,72.6,53.4,30.05,West,263,3.0,5.0,51,0.00,,,0.00,Wunderground v.1.13,2013-04-08 23:22:00,
2013-04-08 19:27:00,72.5,53.9,30.05,West,263,3.0,5.0,52,0.00,,,0.00,Wunderground v.1.13,2013-04-08 23:27:00,
2013-04-08 19:32:00,72.4,53.8,30.05,West,265,4.0,6.0,52,0.00,,,0.00,Wunderground v.1.13,2013-04-08 23:32:00,
2013-04-08 19:38:00,72.3,53.7,30.04,WSW,258,3.0,4.0,52,0.00,,,0.00,Wunderground v.1.13,2013-04-08 23:38:00,
2013-04-08 19:43:00,72.1,54.0,30.04,WSW,257,3.0,4.0,53,0.00,,,0.00,Wunderground v.1.13,2013-04-08 23:43:00,
2013-04-08 19:48:00,72.0,53.9,30.04,WSW,257,2.0,3.0,53,0.00,,,0.00,Wunderground v.1.13,2013-04-08 23:48:00,
2013-04-08 19:54:00,71.9,53.8,30.05,WSW,257,1.0,2.0,53,0.00,,,0.00,Wunderground v.1.13,2013-04-08 23:54:00,
2013-04-08 20:00:00,71.7,54.2,30.05,WSW,257,2.0,2.0,54,0.00,,,0.00,Wunderground v.1.13,2013-04-09 00:00:00,
2013-04-08 20:05:00,71.5,54.5,30.05,WSW,257,1.0,1.0,55,0.00,,,0.00,Wunderground v.1.13,2013-04-09 00:05:00,
2013-04-08 20:10:00,71.3,54.3,30.05,WSW,257,0.0,0.0,55,0.00,,,0.00,Wunderground v.1.13,2013-04-09 00:10:00,
2013-04-08 20:16:00,71.0,54.5,30.05,WSW,257,0.0,0.0,56,0.00,,,0.00,Wunderground v.1.13,2013-04-09 00:16:00,
2013-04-08 20:22:00,70.6,54.1,30.05,WSW,257,0.0,0.0,56,0.00,,,0.00,Wunderground v.1.13,2013-04-09 00:22:00,
2013-04-08 20:27:00,70.3,54.3,30.05,WSW,257,0.0,0.0,57,0.00,,,0.00,Wunderground v.1.13,2013-04-09 00:27:00,
2013-04-08 20:33:00,69.7,54.3,30.05,WSW,257,0.0,0.0,58,0.00,,,0.00,Wunderground v.1.13,2013-04-09 00:33:00,
2013-04-08 20:38:00,69.3,54.4,30.05,WSW,257,0.0,0.0,59,0.00,,,0.00,Wunderground v.1.13,2013-04-09 00:38:00,
2013-04-08 20:43:00,69.0,54.5,30.06,WSW,257,0.0,0.0,60,0.00,,,0.00,Wunderground v.1.13,2013-04-09 00:43:00,
2013-04-08 20:49:00,68.2,54.2,30.06,WSW,257,0.0,0.0,61,0.00,,,0.00,Wunderground v.1.13,2013-04-09 00:49:00,
2013-04-08 20:55:00,67.6,54.1,30.06,WSW,257,0.0,0.0,62,0.00,,,0.00,Wunderground v.1.13,2013-04-09 00:55:00,
2013-04-08 21:01:00,67.0,53.5,30.06,WSW,257,0.0,0.0,62,0.00,,,0.00,Wunderground v.1.13,2013-04-09 01:01:00,
2013-04-08 21:07:00,66.6,54.0,30.06,WSW,257,0.0,0.0,64,0.00,,,0.00,Wunderground v.1.13,2013-04-09 01:07:00,
2013-04-08 21:12:00,66.3,55.4,30.06,WSW,257,0.0,0.0,68,0.00,,,0.00,Wunderground v.1.13,2013-04-09 01:12:00,
2013-04-08 21:17:00,65.8,54.5,30.06,WSW,257,0.0,0.0,67,0.00,,,0.00,Wunderground v.1.13,2013-04-09 01:17:00,
2013-04-08 21:22:00,65.4,54.6,30.07,WSW,257,0.0,0.0,68,0.00,,,0.00,Wunderground v.1.13,2013-04-09 01:22:00,
2013-04-08 21:27:00,65.2,54.8,30.07,WSW,257,0.0,0.0,69,0.00,,,0.00,Wunderground v.1.13,2013-04-09 01:27:00,
2013-04-08 21:32:00,64.9,54.5,30.07,WSW,257,0.0,0.0,69,0.00,,,0.00,Wunderground v.1.13,2013-04-09 01:32:00,
2013-04-08 21:38:00,64.5,53.7,30.07,WSW,257,0.0,0.0,68,0.00,,,0.00,Wunderground v.1.13,2013-04-09 01:38:00,
2013-04-08 21:44:00,64.1,53.7,30.07,WSW,257,0.0,0.0,69,0.00,,,0.00,Wunderground v.1.13,2013-04-09 01:44:00,
2013-04-08 21:49:00,63.9,53.5,30.07,WSW,257,0.0,0.0,69,0.00,,,0.00,Wunderground v.1.13,2013-04-09 01:49:00,
2013-04-08 21:54:00,63.4,53.0,30.07,WSW,257,0.0,0.0,69,0.00,,,0.00,Wunderground v.1.13,2013-04-09 01:54:00,
2013-04-08 21:59:00,62.9,53.0,30.07,WSW,257,0.0,0.0,70,0.00,,,0.00,Wunderground v.1.13,2013-04-09 01:59:00,
2013-04-08 22:04:00,62.6,52.7,30.07,WSW,257,0.0,0.0,70,0.00,,,0.00,Wunderground v.1.13,2013-04-09 02:04:00,
2013-04-08 22:10:00,62.1,52.6,30.07,WSW,257,0.0,0.0,71,0.00,,,0.00,Wunderground v.1.13,2013-04-09 02:10:00,
2013-04-08 22:15:00,61.8,53.1,30.08,WSW,257,0.0,0.0,73,0.00,,,0.00,Wunderground v.1.13,2013-04-09 02:15:00,
2013-04-08 22:21:00,61.4,53.0,30.08,WSW,257,0.0,0.0,74,0.00,,,0.00,Wunderground v.1.13,2013-04-09 02:21:00,
2013-04-08 22:27:00,60.9,52.6,30.08,WSW,257,0.0,0.0,74,0.00,,,0.00,Wunderground v.1.13,2013-04-09 02:27:00,
2013-04-08 22:32:00,60.4,52.1,30.08,WSW,257,0.0,0.0,74,0.00,,,0.00,Wunderground v.1.13,2013-04-09 02:32:00,
2013-04-08 22:38:00,60.0,52.1,30.08,WSW,257,0.0,0.0,75,0.00,,,0.00,Wunderground v.1.13,2013-04-09 02:38:00,
2013-04-08 22:43:00,59.4,51.8,30.09,WSW,257,0.0,0.0,76,0.00,,,0.00,Wunderground v.1.13,2013-04-09 02:43:00,
2013-04-08 22:48:00,59.0,51.4,30.09,WSW,257,0.0,0.0,76,0.00,,,0.00,Wunderground v.1.13,2013-04-09 02:48:00,
2013-04-08 22:54:00,58.5,51.3,30.09,WSW,257,0.0,0.0,77,0.00,,,0.00,Wunderground v.1.13,2013-04-09 02:54:00,
2013-04-08 23:00:00,58.0,50.8,30.09,WSW,257,0.0,0.0,77,0.00,,,0.00,Wunderground v.1.13,2013-04-09 03:00:00,
2013-04-08 23:05:00,57.7,51.2,30.09,WSW,257,0.0,0.0,79,0.00,,,0.00,Wunderground v.1.13,2013-04-09 03:05:00,
2013-04-08 23:11:00,57.2,51.1,30.09,WSW,257,0.0,0.0,80,0.00,,,0.00,Wunderground v.1.13,2013-04-09 03:11:00,
2013-04-08 23:17:00,56.8,51.0,30.09,WSW,257,0.0,0.0,81,0.00,,,0.00,Wunderground v.1.13,2013-04-09 03:17:00,
2013-04-08 23:23:00,56.4,50.6,30.09,WSW,257,0.0,0.0,81,0.00,,,0.00,Wunderground v.1.13,2013-04-09 03:23:00,
2013-04-08 23:28:00,56.2,50.4,30.09,WSW,257,0.0,0.0,81,0.00,,,0.00,Wunderground v.1.13,2013-04-09 03:28:00,
2013-04-08 23:34:00,55.8,50.1,30.10,WSW,257,0.0,0.0,81,0.00,,,0.00,Wunderground v.1.13,2013-04-09 03:34:00,
2013-04-08 23:39:00,55.6,50.2,30.10,WSW,257,0.0,0.0,82,0.00,,,0.00,Wunderground v.1.13,2013-04-09 03:39:00,
2013-04-08 23:45:00,55.3,49.9,30.10,WSW,257,0.0,0.0,82,0.00,,,0.00,Wunderground v.1.13,2013-04-09 03:45:00,
2013-04-08 23:50:00,55.0,49.9,30.10,WSW,257,0.0,0.0,83,0.00,,,0.00,Wunderground v.1.13,2013-04-09 03:50:00,
2013-04-08 23:55:00,54.7,49.3,30.10,WSW,257,0.0,0.0,82,0.00,,,0.00,Wunderground v.1.13,2013-04-09 03:55:00,